| time (UTC) | temp F | wind direction | speed knots | gust knots | rain 1hr in | rain 24hr in | rain mn in | humidity % | barometer mb |
| 20260831120400 | 0 | 0.0 | 0.0 | 0.00 | 0.00 | 0.00 | |||
| 20260831114900 | 88 | 150 | 9.6 | 0.0 | 0.00 | 0.00 | 0.00 | 25 | 1018.0 |
| 20260831113400 | 88 | 150 | 9.6 | 0.0 | 0.00 | 0.00 | 0.00 | 25 | 1018.0 |
| 20260831111920 | 88 | 150 | 9.6 | 0.0 | 0.00 | 0.00 | 0.00 | 25 | 1018.0 |
| 20260831110359 | 0 | 0.0 | 0.0 | 0.00 | 0.00 | 0.00 | |||
| 20260831104900 | 86 | 90 | 9.6 | 0.0 | 0.00 | 0.00 | 0.00 | 31 | 1018.0 |
| 20260831103400 | 86 | 90 | 9.6 | 0.0 | 0.00 | 0.00 | 0.00 | 31 | 1018.0 |
| 20260831101900 | 86 | 90 | 9.6 | 0.0 | 0.00 | 0.00 | 0.00 | 31 | 1018.0 |
| 20260831100359 | 86 | 90 | 9.6 | 0.0 | 0.00 | 0.00 | 0.00 | 31 | 1018.0 |
| 20260831094859 | 84 | 90 | 9.6 | 0.0 | 0.00 | 0.00 | 0.00 | 31 | 1018.0 |
| 20260831093521 | 0 | 0.0 | 0.0 | 0.00 | 0.00 | 0.00 | |||
| 20260831091900 | 84 | 90 | 9.6 | 0.0 | 0.00 | 0.00 | 0.00 | 31 | 1018.0 |
| 20260831090400 | 84 | 90 | 9.6 | 0.0 | 0.00 | 0.00 | 0.00 | 31 | 1018.0 |
| 20260831084859 | 0 | 0.0 | 0.0 | 0.00 | 0.00 | 0.00 | |||
| 20260831083359 | 0 | 0.0 | 0.0 | 0.00 | 0.00 | 0.00 | |||
| 20260831082022 | 0 | 0.0 | 0.0 | 0.00 | 0.00 | 0.00 | |||
| 20260831080359 | 0 | 0.0 | 0.0 | 0.00 | 0.00 | 0.00 | |||
| 20260831074923 | 0 | 0.0 | 0.0 | 0.00 | 0.00 | 0.00 | |||
| 20260831073400 | 0 | 0.0 | 0.0 | 0.00 | 0.00 | 0.00 | |||
| 20260831071929 | 0 | 0.0 | 0.0 | 0.00 | 0.00 | 0.00 | |||
| 20260831070401 | 0 | 0.0 | 0.0 | 0.00 | 0.00 | 0.00 | |||
| 20260831064859 | 72 | 2.6 | 0.0 | 0.00 | 0.00 | 0.00 | 73 | 1019.0 | |
| 20260831063359 | 72 | 2.6 | 0.0 | 0.00 | 0.00 | 0.00 | 73 | 1019.0 | |
| 20260831061901 | 72 | 2.6 | 0.0 | 0.00 | 0.00 | 0.00 | 73 | 1019.0 | |
| 20260831060400 | 72 | 2.6 | 0.0 | 0.00 | 0.00 | 0.00 | 73 | 1019.0 | |
| 20260831054900 | 59 | 2.6 | 0.0 | 0.00 | 0.00 | 0.00 | 100 | 1018.0 | |
| 20260831053359 | 59 | 2.6 | 0.0 | 0.00 | 0.00 | 0.00 | 100 | 1018.0 | |
| 20260831051900 | 59 | 2.6 | 0.0 | 0.00 | 0.00 | 0.00 | 100 | 1018.0 | |
| 20260831050359 | 0 | 0.0 | 0.0 | 0.00 | 0.00 | 0.00 | |||
| 20260831044901 | 59 | 2.6 | 0.0 | 0.00 | 0.00 | 0.00 | 100 | 1018.0 | |
| 20260831043404 | 59 | 2.6 | 0.0 | 0.00 | 0.00 | 0.00 | 100 | 1018.0 | |
| 20260831041900 | 59 | 2.6 | 0.0 | 0.00 | 0.00 | 0.00 | 100 | 1018.0 | |
| 20260831040359 | 59 | 2.6 | 0.0 | 0.00 | 0.00 | 0.00 | 100 | 1018.0 | |
| 20260831034900 | 59 | 130 | 2.6 | 0.0 | 0.00 | 0.00 | 0.00 | 100 | 1018.0 |
| 20260831033400 | 59 | 130 | 2.6 | 0.0 | 0.00 | 0.00 | 0.00 | 100 | 1018.0 |
| 20260831031900 | 59 | 130 | 2.6 | 0.0 | 0.00 | 0.00 | 0.00 | 100 | 1018.0 |
| 20260831030400 | 59 | 130 | 2.6 | 0.0 | 0.00 | 0.00 | 0.00 | 100 | 1018.0 |
| 20260831024859 | 61 | 100 | 4.3 | 0.0 | 0.00 | 0.00 | 0.00 | 94 | 1018.0 |
| 20260831023407 | 61 | 100 | 4.3 | 0.0 | 0.00 | 0.00 | 0.00 | 94 | 1018.0 |
| 20260831021859 | 0 | 0.0 | 0.0 | 0.00 | 0.00 | 0.00 | |||
| 20260831020401 | 0 | 0.0 | 0.0 | 0.00 | 0.00 | 0.00 | |||
| 20260831014856 | 63 | 120 | 5.2 | 0.0 | 0.00 | 0.00 | 0.00 | 83 | 1018.0 |
| 20260831013359 | 63 | 120 | 5.2 | 0.0 | 0.00 | 0.00 | 0.00 | 83 | 1018.0 |
| 20260831011900 | 63 | 120 | 5.2 | 0.0 | 0.00 | 0.00 | 0.00 | 83 | 1018.0 |
| 20260831010359 | 63 | 120 | 5.2 | 0.0 | 0.00 | 0.00 | 0.00 | 83 | 1018.0 |
| 20260831004900 | 63 | 120 | 5.2 | 0.0 | 0.00 | 0.00 | 0.00 | 83 | 1018.0 |
| 20260831003359 | 64 | 110 | 7.0 | 0.0 | 0.00 | 0.00 | 0.00 | 73 | 1018.0 |
| 20260831001859 | 64 | 110 | 7.0 | 0.0 | 0.00 | 0.00 | 0.00 | 73 | 1018.0 |
| 20260831000359 | 64 | 110 | 7.0 | 0.0 | 0.00 | 0.00 | 0.00 | 73 | 1018.0 |
| 20260830234856 | 66 | 100 | 6.1 | 0.0 | 0.00 | 0.00 | 0.00 | 64 | 1018.0 |
| 20260830233359 | 66 | 100 | 6.1 | 0.0 | 0.00 | 0.00 | 0.00 | 64 | 1018.0 |
| 20260830231900 | 66 | 100 | 6.1 | 0.0 | 0.00 | 0.00 | 0.00 | 64 | 1018.0 |
| 20260830230400 | 0 | 0.0 | 0.0 | 0.00 | 0.00 | 0.00 | |||
| 20260830224859 | 68 | 110 | 6.1 | 0.0 | 0.00 | 0.00 | 0.00 | 60 | 1018.0 |
| 20260830223359 | 68 | 110 | 6.1 | 0.0 | 0.00 | 0.00 | 0.00 | 60 | 1018.0 |
| 20260830221859 | 68 | 110 | 6.1 | 0.0 | 0.00 | 0.00 | 0.00 | 60 | 1018.0 |
| 20260830220400 | 68 | 110 | 6.1 | 0.0 | 0.00 | 0.00 | 0.00 | 60 | 1018.0 |
| 20260830214859 | 68 | 110 | 6.1 | 0.0 | 0.00 | 0.00 | 0.00 | 60 | 1018.0 |
| 20260830213359 | 70 | 120 | 5.2 | 0.0 | 0.00 | 0.00 | 0.00 | 53 | 1018.0 |
| 20260830211859 | 70 | 120 | 5.2 | 0.0 | 0.00 | 0.00 | 0.00 | 53 | 1018.0 |
| 20260830210359 | 0 | 0.0 | 0.0 | 0.00 | 0.00 | 0.00 | |||
| 20260830204859 | 72 | 110 | 7.0 | 0.0 | 0.00 | 0.00 | 0.00 | 50 | 1018.0 |
| 20260830203359 | 72 | 110 | 7.0 | 0.0 | 0.00 | 0.00 | 0.00 | 50 | 1018.0 |
| 20260830201859 | 72 | 110 | 7.0 | 0.0 | 0.00 | 0.00 | 0.00 | 50 | 1018.0 |
| 20260830200359 | 72 | 110 | 7.0 | 0.0 | 0.00 | 0.00 | 0.00 | 50 | 1018.0 |
| 20260830194859 | 72 | 110 | 7.0 | 0.0 | 0.00 | 0.00 | 0.00 | 50 | 1018.0 |
| 20260830193400 | 72 | 110 | 7.0 | 0.0 | 0.00 | 0.00 | 0.00 | 50 | 1018.0 |
| 20260830191901 | 72 | 110 | 7.0 | 0.0 | 0.00 | 0.00 | 0.00 | 50 | 1018.0 |
| 20260830190401 | 72 | 110 | 7.0 | 0.0 | 0.00 | 0.00 | 0.00 | 50 | 1018.0 |
| 20260830184900 | 75 | 120 | 7.8 | 0.0 | 0.00 | 0.00 | 0.00 | 44 | 1018.0 |
| 20260830183428 | 75 | 120 | 7.8 | 0.0 | 0.00 | 0.00 | 0.00 | 44 | 1018.0 |
| 20260830181900 | 75 | 120 | 7.8 | 0.0 | 0.00 | 0.00 | 0.00 | 44 | 1018.0 |
| 20260830180400 | 75 | 120 | 7.8 | 0.0 | 0.00 | 0.00 | 0.00 | 44 | 1018.0 |
| 20260830174859 | 79 | 120 | 9.6 | 0.0 | 0.00 | 0.00 | 0.00 | 39 | 1017.0 |
| 20260830173359 | 79 | 120 | 9.6 | 0.0 | 0.00 | 0.00 | 0.00 | 39 | 1017.0 |
| 20260830171859 | 79 | 120 | 9.6 | 0.0 | 0.00 | 0.00 | 0.00 | 39 | 1017.0 |
| 20260830170400 | 79 | 120 | 9.6 | 0.0 | 0.00 | 0.00 | 0.00 | 39 | 1017.0 |
| 20260830164859 | 82 | 130 | 13.9 | 0.0 | 0.00 | 0.00 | 0.00 | 35 | 1017.0 |
| 20260830163400 | 82 | 130 | 13.9 | 0.0 | 0.00 | 0.00 | 0.00 | 35 | 1017.0 |
| 20260830161858 | 82 | 130 | 13.9 | 0.0 | 0.00 | 0.00 | 0.00 | 35 | 1017.0 |
| 20260830160400 | 82 | 130 | 13.9 | 0.0 | 0.00 | 0.00 | 0.00 | 35 | 1017.0 |
| 20260830154901 | 84 | 120 | 4.3 | 0.0 | 0.00 | 0.00 | 0.00 | 35 | 1017.0 |
| 20260830153400 | 84 | 120 | 4.3 | 0.0 | 0.00 | 0.00 | 0.00 | 35 | 1017.0 |
| 20260830151859 | 84 | 120 | 4.3 | 0.0 | 0.00 | 0.00 | 0.00 | 35 | 1017.0 |
| 20260830150402 | 84 | 120 | 4.3 | 0.0 | 0.00 | 0.00 | 0.00 | 35 | 1017.0 |
| 20260830144900 | 88 | 100 | 4.3 | 0.0 | 0.00 | 0.00 | 0.00 | 31 | 1017.0 |
| 20260830143359 | 88 | 100 | 4.3 | 0.0 | 0.00 | 0.00 | 0.00 | 31 | 1017.0 |
| 20260830141859 | 88 | 100 | 4.3 | 0.0 | 0.00 | 0.00 | 0.00 | 31 | 1017.0 |
| 20260830140359 | 88 | 100 | 4.3 | 0.0 | 0.00 | 0.00 | 0.00 | 31 | 1017.0 |
| 20260830134859 | 88 | 120 | 4.3 | 0.0 | 0.00 | 0.00 | 0.00 | 33 | 1017.0 |
| 20260830133413 | 88 | 120 | 4.3 | 0.0 | 0.00 | 0.00 | 0.00 | 33 | 1017.0 |
| 20260830131901 | 88 | 120 | 4.3 | 0.0 | 0.00 | 0.00 | 0.00 | 33 | 1017.0 |
| 20260830130359 | 88 | 120 | 4.3 | 0.0 | 0.00 | 0.00 | 0.00 | 33 | 1017.0 |
| 20260830124859 | 86 | 2.6 | 0.0 | 0.00 | 0.00 | 0.00 | 40 | 1017.0 | |
| 20260830123359 | 86 | 2.6 | 0.0 | 0.00 | 0.00 | 0.00 | 40 | 1017.0 | |
| 20260830122023 | 0 | 0.0 | 0.0 | 0.00 | 0.00 | 0.00 |